TimePDT,TemperatureF,Dew PointF,Humidity,Sea Level PressureIn,VisibilityMPH,Wind Direction,Wind SpeedMPH,Gust SpeedMPH,PrecipitationIn,Events,Conditions,WindDirDegrees,DateUTC
12:53 AM,54.0,48.0,80,30.11,10.0,Calm,Calm,-,N/A,,Clear,0,2014-05-15 07:53:00
1:53 AM,52.0,46.9,83,30.10,10.0,North,3.5,-,N/A,,Clear,10,2014-05-15 08:53:00
2:53 AM,50.0,46.0,86,30.10,10.0,NNE,3.5,-,N/A,,Clear,20,2014-05-15 09:53:00
3:53 AM,48.0,46.0,93,30.09,10.0,Calm,Calm,-,N/A,,Clear,0,2014-05-15 10:53:00
4:53 AM,51.1,45.0,80,30.09,10.0,East,4.6,-,N/A,,Clear,90,2014-05-15 11:53:00
5:53 AM,52.0,45.0,77,30.08,10.0,ESE,3.5,-,N/A,,Clear,110,2014-05-15 12:53:00
6:53 AM,53.1,46.9,80,30.09,10.0,Calm,Calm,-,N/A,,Clear,0,2014-05-15 13:53:00
7:53 AM,59.0,48.0,67,30.08,10.0,NW,3.5,-,N/A,,Clear,320,2014-05-15 14:53:00
8:53 AM,64.9,48.9,56,30.08,10.0,Calm,Calm,-,N/A,,Clear,0,2014-05-15 15:53:00
9:53 AM,71.1,50.0,47,30.07,10.0,Variable,5.8,-,N/A,,Clear,0,2014-05-15 16:53:00
10:53 AM,75.9,48.9,38,30.05,10.0,North,4.6,-,N/A,,Clear,360,2014-05-15 17:53:00
12:53 PM,84.0,46.9,27,30.00,10.0,NNW,4.6,-,N/A,,Clear,340,2014-05-15 19:53:00
1:53 PM,87.1,43.0,21,29.98,9.0,Calm,Calm,-,N/A,,Clear,0,2014-05-15 20:53:00
2:53 PM,89.1,37.9,16,29.95,10.0,Variable,4.6,-,N/A,,Clear,0,2014-05-15 21:53:00
3:53 PM,89.1,32.0,13,29.93,10.0,NE,3.5,-,N/A,,Clear,40,2014-05-15 22:53:00
4:53 PM,90.0,34.0,14,29.91,10.0,NNE,5.8,-,N/A,,Clear,20,2014-05-15 23:53:00
5:53 PM,87.1,41.0,20,29.90,10.0,North,5.8,-,N/A,,Clear,350,2014-05-16 00:53:00
6:53 PM,82.0,50.0,33,29.89,10.0,NNW,5.8,-,N/A,,Clear,340,2014-05-16 01:53:00
7:53 PM,75.9,60.1,58,29.89,10.0,NNW,3.5,-,N/A,,Clear,340,2014-05-16 02:53:00
8:53 PM,75.0,55.0,50,29.90,10.0,Calm,Calm,-,N/A,,Clear,0,2014-05-16 03:53:00
9:53 PM,70.0,55.0,59,29.91,10.0,NNE,5.8,-,N/A,,Clear,30,2014-05-16 04:53:00
10:53 PM,64.0,57.0,78,29.90,10.0,NE,4.6,-,N/A,,Clear,40,2014-05-16 05:53:00
11:53 PM,68.0,55.9,65,29.90,10.0,ESE,6.9,-,N/A,,Partly Cloudy,110,2014-05-16 06:53:00